Content
SEND FEEDBACK

Daily
Averages
Monthly
Summary
United States of America

CHELSEA, MASSACHUSETTS


Home > North America > United States > Massachusetts
Elevation: 30 feet     Latitude: 42 24N     Longitude: 071 06W

WEATHER
 
SELECT A DAY
Number of Records: 204,732;   Date Range: 1/1/95 - 9/29/14
 
SHARE

PRINT THIS DATA

[ ← Previous Day ]
WEATHER ALMANAC - APRIL 28, 2013
[ Next Day → ]
[ °C ]   °F
Weather ElementAverageHighLow
Temperature54 °F62.6 °F (6:13 pm)45 °F (3:54 am)
Dewpoint36.4 °F42.8 °F (10:54 am)25 °F (10:54 pm)
Humidity52.8 %71 % (3:54 am)34 % (10:54 pm)
Barometer30.29 in30.35 in (8:54 am)30.24 in (4:54 pm)
Wind Speed10.1 mph20.7 mph (2:54 pm)
Weather ElementAverage
Visibility10 mi
Wind DirectionSSE (145 °)

Weather ElementTotal
Precipitation---
Heating Degree Days11.2 (Base 65)
Growing Degree Days3.8 (Base 50)
Averaged from 24 records on April 28, 2013
WEATHER CONDITIONS BREAKOUT
WIND DIRECTION BREAKOUT
WEATHER BY HOUR - APRIL 28, 2013
[ °C ]   °F
Local TimeTemperatureDewpointHumidityBarometerVisibilityWind DirectionWind SpeedGust SpeedPrecipitationEventsConditions
1:54 AM46.9 °F36.0 °F66 %30.33 in10.0 miSW (220°)4.6 mphPartly Cloudy
2:54 AM46.0 °F36.0 °F68 %30.32 in10.0 miSSW (210°)4.6 mphPartly Cloudy
3:54 AM45.0 °F36.0 °F71 %30.32 in10.0 miSSW (200°)4.6 mphClear
4:54 AM45.0 °F36.0 °F71 %30.31 in10.0 miSW (220°)4.6 mphClear
5:54 AM45.0 °F36.0 °F71 %30.31 in10.0 miWest (260°)3.5 mphPartly Cloudy
6:54 AM48.9 °F37.9 °F66 %30.32 in10.0 miCalmPartly Cloudy
7:54 AM54.0 °F37.0 °F53 %30.33 in10.0 miCalmPartly Cloudy
8:54 AM54.0 °F41.0 °F62 %30.35 in10.0 miESE (120°)4.6 mphPartly Cloudy
9:54 AM55.9 °F41.0 °F57 %30.35 in10.0 miEast (90°)5.8 mphPartly Cloudy
10:54 AM57.2 °F42.8 °F59 %30.35 in10.0 miEast (80°)8.1 mphScattered Clouds
11:54 AM57.0 °F39.0 °F51 %30.33 in10.0 miEast (80°)11.5 mphScattered Clouds
12:54 PM57.0 °F37.0 °F47 %30.32 in10.0 miEast (80°)13.8 mphPartly Cloudy
1:54 PM60.1 °F37.0 °F42 %30.30 in10.0 miEast (100°)18.4 mphPartly Cloudy
2:54 PM57.9 °F39.9 °F51 %30.28 in10.0 miEast (100°)20.7 mphScattered Clouds
3:54 PM57.9 °F39.9 °F51 %30.25 in10.0 miEast (100°)19.6 mphScattered Clouds
4:54 PM57.0 °F39.9 °F53 %30.24 in10.0 miESE (110°)20.7 mphMostly Cloudy
5:54 PM60.1 °F39.9 °F47 %30.24 in10.0 miESE (120°)12.7 mphScattered Clouds
6:13 PM62.6 °F35.6 °F37 %30.24 in10.0 miSouth (190°)15.0 mphScattered Clouds
6:54 PM60.1 °F33.1 °F36 %30.25 in10.0 miSSW (200°)16.1 mphMostly Cloudy
7:54 PM57.0 °F32.0 °F39 %30.25 in10.0 miSSW (200°)12.7 mphOvercast
8:54 PM55.0 °F30.9 °F40 %30.26 in10.0 miSouth (180°)11.5 mphOvercast
9:54 PM53.1 °F28.9 °F40 %30.27 in10.0 miSSW (200°)10.4 mphMostly Cloudy
10:54 PM53.1 °F25.0 °F34 %30.27 in10.0 miSSW (210°)9.2 mphMostly Cloudy
11:54 PM51.1 °F36.0 °F56 %30.28 in10.0 miSSW (210°)9.2 mphOvercast
Hourly data recorded from KBOS, located miles away from Chelsea, Massachusetts







STORIES FROM OUR PARTNERS